Location: Arcones
(41.1182°N, 3.7238°W)
Time: 04:45:10
(UTC+00:00)

Gbstr 26 Del rocket - Pass Details

Date: 11 December 2025
Orbit: 490 x 1218 km, 51.8° (Epoch: 13 January)

Event Time Altitude Azimuth Distance (km) Brightness Sun altitude
Rises 17:29:29 0° 241° (WSW) 2,907 8.9 -8.1°
Reaches altitude 10° 17:31:57 10° 244° (WSW) 1,906 7.3 -8.5°
Maximum altitude 17:36:09 63° 326° (NW) 593 3.0 -9.2°
Enters shadow 17:39:35 12° 48° (NE) 1,574 4.6 -9.8°
